Home > Weather > Manama > Past weeks

Flag for Bahrain Weather for the Past 2 Weeks in Manama, Bahrain

Now
82 °F

Duststorm.


Feels Like: 87 °F
Forecast: 81 / 91 °F
Wind: 23 mph from Northwest

Location: Bahrain International Airport

Current Time: Apr 30, 2016 at 9:16:28 AM

Latest Report: Apr 30, 2016 at 8:00 AM


Visibility: 3 mi

Pressure: 29.83 "Hg

Humidity: 70%

Dew Point: 72 °F

Location of ManamaLocation

Historic Weather in Manama — Graph

°F

Manama Temperature Yesterday

Maximum temperature yesterday: 91 °F (at 10:00 AM)
Minimum temperature yesterday: 81 °F (at 12:00 AM)
Average temperature yesterday: 85 °F

High & Low Weather Summary for the Past Weeks

 TemperatureHumidityPressure
High102 °F (Apr 26, 1:00 PM)83% (Apr 22, 5:00 AM)30.01 "Hg (Apr 22, 5:00 AM)
Low73 °F (Apr 16, 12:00 AM)9% (Apr 26, 12:00 PM)29.68 "Hg (Apr 24, 4:00 AM)
Average83 °F46%29.84 "Hg
* Reported Apr 15 7:00 AM — Apr 30 7:00 AM, Manama, Weather by CustomWeather, © 2016

Note: Actual official high and low records may vary slightly from our data, if they occured in-between our weather recording intervals... More about our weather records

Advertising

Manama Weather History for the Previous 24 Hours

Scroll right to see more
 ConditionsComfort  
Time TempWeatherWind HumidityBarometerVisibility
7:00 AM
Sat, Apr 30
82 °FClear.16 mph62%29.80 "Hg6 mi
6:00 AM82 °FClear.6 mph70%29.80 "Hg6 mi
5:00 AM82 °FClear.No wind51%29.77 "Hg6 mi
4:00 AM82 °FClear.5 mph62%29.74 "Hg6 mi
3:00 AM82 °FClear.6 mph66%29.74 "Hg6 mi
2:00 AM82 °FClear.7 mph70%29.74 "Hg5 mi
1:00 AM84 °FClear.2 mph43%29.77 "Hg5 mi
12:00 AM82 °FClear.2 mph55%29.77 "Hg4 mi
11:00 PM
Fri, Apr 29
82 °FClear.5 mph51%29.77 "Hg4 mi
10:00 PM84 °FClear.6 mph43%29.77 "Hg6 mi
9:00 PM84 °FClear.7 mph48%29.77 "Hg6 mi
8:00 PM84 °FClear.9 mph51%29.74 "Hg6 mi
7:00 PM84 °FClear.7 mph62%29.77 "Hg5 mi
6:00 PM84 °FClear.8 mph62%29.74 "Hg5 mi
5:00 PM86 °FClear.7 mph55%29.74 "Hg5 mi
4:00 PM86 °FClear.12 mph62%29.71 "Hg5 mi
3:00 PM90 °FClear.12 mph41%29.71 "Hg5 mi
2:00 PM88 °FClear.10 mph49%29.74 "Hg4 mi
1:00 PM91 °FClear.9 mph38%29.74 "Hg5 mi
12:00 PM88 °FClear.9 mph59%29.77 "Hg5 mi
11:00 AM91 °FClear.12 mph49%29.77 "Hg4 mi
10:00 AM91 °FClear.5 mph32%29.80 "Hg4 mi
9:00 AM86 °FClear.8 mph62%29.77 "Hg6 mi
Weather by CustomWeather, © 2016

See weather overviewHow to use our weather pages